Location: Mascot Post Office (historical)
(40.2645°N, 99.5462°W)
Time: 02:42:41
(UTC+00:00)

Cosmos 1869 - Pass Details

Date: 14 July 2020
Orbit: 519 x 563 km, 82.5° (Epoch: 14 August)

Event Time Altitude Azimuth Distance (km) Brightness Sun altitude
Rises 03:28:57 0° 358° (N) 2,730 7.6 -13.3°
Reaches altitude 10° 03:31:11 10° 3° (N) 1,838 6.6 -13.6°
Maximum altitude 03:35:07 49° 80° (E) 720 3.6 -14.1°
Enters shadow 03:37:13 25° 144° (SE) 1,156 4.3 -14.4°
